Home   Weather   Vancouver   Past weeks

Flag for Canada Past Weather in Vancouver, British Columbia, Canada — Yesterday and Last 2 Weeks

Now
64 °F

Passing clouds.


Feels Like: 64 °F
Forecast: 62 / 74 °F
Wind: 14 mph from Southeast

Location: Vancouver International Airport

Current Time: Jul 27, 2017 at 12:06:59 am

Latest Report: Jul 26, 2017 at 11:00 pm


Visibility: 30 mi

Pressure: 30.00 "Hg

Humidity: 73%

Dew Point: 55 °F

Location of VancouverLocation

Past Weather in Vancouver — Graph

°F

Vancouver Temperature Yesterday

Maximum temperature yesterday: 77 °F (at 5:00 pm)
Minimum temperature yesterday: 57 °F (at 5:00 am)
Average temperature yesterday: 66 °F

High & Low Weather Summary for the Past Weeks

 TemperatureHumidityPressure
High77 °F (Jul 26, 5:00 pm)100% (Jul 23, 12:00 am)30.25 "Hg (Jul 23, 12:00 am)
Low54 °F (Jul 17, 5:00 am)36% (Jul 19, 2:00 pm)29.93 "Hg (Jul 24, 8:00 pm)
Average65 °F70%30.07 "Hg
* Reported Jul 11 11:00 pm — Jul 26 11:00 pm, Vancouver. Weather by CustomWeather, © 2017

Note: Actual official high and low records may vary slightly from our data, if they occured in-between our weather recording intervals... More about our weather records

Advertising

Vancouver Weather History for the Previous 24 Hours

Scroll right to see more
 ConditionsComfort  
Time TempWeatherWind HumidityBarometerVisibility
11:00 pm
Wed, Jul 26
64 °FPassing clouds.14 mph73%30.00 "Hg30 mi
10:00 pm64 °FPassing clouds.10 mph73%29.99 "Hg30 mi
9:00 pm66 °FPassing clouds.13 mph68%29.99 "Hg30 mi
8:00 pm72 °FPartly sunny.8 mph57%29.99 "Hg30 mi
7:00 pm72 °FPartly sunny.8 mph57%30.00 "Hg30 mi
6:00 pm75 °FBroken clouds.6 mph54%30.00 "Hg30 mi
5:00 pm77 °FPartly sunny.6 mph47%30.01 "Hg30 mi
4:00 pm75 °FBroken clouds.2 mph54%30.04 "Hg30 mi
2:00 pm73 °FPartly sunny.9 mph53%30.04 "Hg30 mi
1:00 pm73 °FPartly sunny.12 mph57%30.05 "Hg30 mi
12:00 pm72 °FPassing clouds.10 mph57%30.05 "Hg30 mi
11:00 am72 °FPartly sunny.10 mph57%30.06 "Hg30 mi
10:00 am68 °FPartly sunny.10 mph64%30.06 "Hg30 mi
9:00 am64 °FScattered clouds.9 mph73%30.07 "Hg30 mi
8:00 am61 °FPassing clouds.10 mph83%30.06 "Hg30 mi
7:00 am59 °FPassing clouds.13 mph82%30.04 "Hg30 mi
6:00 am57 °FSunny.12 mph88%30.03 "Hg30 mi
5:00 am57 °FClear.10 mph82%30.02 "Hg30 mi
4:00 am59 °FClear.6 mph77%30.01 "Hg30 mi
3:00 am59 °FClear.7 mph82%30.00 "Hg30 mi
2:00 am61 °FClear.8 mph83%30.00 "Hg30 mi
1:00 am61 °FClear.8 mph88%30.00 "Hg30 mi
12:00 am63 °FClear.5 mph83%29.99 "Hg30 mi
Weather by CustomWeather, © 2017

See weather overviewHow to use our weather pages